Time,TemperatureF,DewpointF,PressureIn,WindDirection,WindDirectionDegrees,WindSpeedMPH,WindSpeedGustMPH,Humidity,HourlyPrecipIn,Conditions,Clouds,dailyrainin,SoftwareType,DateUTC
2013-01-09 15:19:00,68.2,57.2,30.30,North,0,0.0,1.0,68,0.00,,---,0.00,VWS V14.01,2013-01-09 20:19:00,
2013-01-09 15:24:00,68.4,57.4,30.30,WNW,303,0.0,1.0,68,0.00,,---,0.00,VWS V14.01,2013-01-09 20:24:00,
2013-01-09 15:29:00,68.5,57.5,30.30,WNW,303,0.0,1.0,68,0.00,,---,0.00,VWS V14.01,2013-01-09 20:29:00,
2013-01-09 15:34:00,68.6,57.2,30.30,NW,304,0.0,1.0,67,0.00,,---,0.00,VWS V14.01,2013-01-09 20:34:00,
2013-01-09 15:39:00,68.7,57.3,30.30,NW,306,0.0,1.0,67,0.00,,---,0.00,VWS V14.01,2013-01-09 20:39:00,
2013-01-09 15:44:00,68.8,57.4,30.30,NW,306,0.0,1.0,67,0.00,,---,0.00,VWS V14.01,2013-01-09 20:44:00,
2013-01-09 15:49:00,68.9,57.5,30.30,NW,306,0.0,1.0,67,0.00,,---,0.00,VWS V14.01,2013-01-09 20:49:00,
2013-01-09 15:54:00,68.9,57.5,30.31,NW,306,0.0,1.0,67,0.00,,---,0.00,VWS V14.01,2013-01-09 20:54:00,
2013-01-09 15:59:00,69.0,57.2,30.31,NW,306,0.0,1.0,66,0.00,,---,0.00,VWS V14.01,2013-01-09 20:59:00,
2013-01-09 16:04:00,69.1,57.3,30.31,NW,306,0.0,1.0,66,0.00,,---,0.00,VWS V14.01,2013-01-09 21:04:00,
2013-01-09 16:09:00,69.2,57.4,30.31,NW,306,0.0,1.0,66,0.00,,---,0.00,VWS V14.01,2013-01-09 21:09:00,
2013-01-09 16:14:00,69.2,57.4,30.31,NW,306,0.0,1.0,66,0.00,,---,0.00,VWS V14.01,2013-01-09 21:14:00,
2013-01-09 16:19:00,69.2,57.4,30.31,NW,306,0.0,1.0,66,0.00,,---,0.00,VWS V14.01,2013-01-09 21:19:00,
2013-01-09 16:24:00,69.2,57.0,30.31,NW,306,0.0,1.0,65,0.00,,---,0.00,VWS V14.01,2013-01-09 21:24:00,
2013-01-09 16:29:00,69.3,57.0,30.31,NW,306,0.0,1.0,65,0.00,,---,0.00,VWS V14.01,2013-01-09 21:29:00,
2013-01-09 16:34:00,69.3,57.0,30.31,NW,306,0.0,1.0,65,0.00,,---,0.00,VWS V14.01,2013-01-09 21:34:00,
2013-01-09 16:39:00,69.3,57.0,30.32,NW,306,0.0,1.0,65,0.00,,---,0.00,VWS V14.01,2013-01-09 21:39:00,
2013-01-09 16:44:00,69.3,57.0,30.32,NW,306,0.0,1.0,65,0.00,,---,0.00,VWS V14.01,2013-01-09 21:44:00,
2013-01-09 16:49:00,69.3,57.0,30.32,NW,306,0.0,1.0,65,0.00,,---,0.00,VWS V14.01,2013-01-09 21:49:00,
2013-01-09 16:54:00,69.2,57.0,30.32,NW,306,0.0,1.0,65,0.00,,---,0.00,VWS V14.01,2013-01-09 21:54:00,
2013-01-09 16:59:00,69.2,57.0,30.32,NW,306,0.0,1.0,65,0.00,,---,0.00,VWS V14.01,2013-01-09 21:59:00,
2013-01-09 17:04:00,69.2,57.0,30.32,NW,306,0.0,1.0,65,0.00,,---,0.00,VWS V14.01,2013-01-09 22:04:00,
2013-01-09 17:09:00,69.1,56.8,30.32,NW,306,0.0,1.0,65,0.00,,---,0.00,VWS V14.01,2013-01-09 22:09:00,
2013-01-09 17:14:00,69.0,56.8,30.32,NW,306,0.0,1.0,65,0.00,,---,0.00,VWS V14.01,2013-01-09 22:14:00,
2013-01-09 17:19:00,69.0,56.8,30.33,NW,306,0.0,1.0,65,0.00,,---,0.00,VWS V14.01,2013-01-09 22:19:00,
2013-01-09 17:24:00,69.0,56.8,30.33,NW,306,0.0,1.0,65,0.00,,---,0.00,VWS V14.01,2013-01-09 22:24:00,
2013-01-09 17:29:00,69.0,56.8,30.33,NW,306,0.0,1.0,65,0.00,,---,0.00,VWS V14.01,2013-01-09 22:29:00,
2013-01-09 17:34:00,69.0,56.8,30.33,NW,306,0.0,1.0,65,0.00,,---,0.00,VWS V14.01,2013-01-09 22:34:00,
2013-01-09 17:39:00,68.9,56.7,30.33,NW,306,0.0,1.0,65,0.00,,---,0.00,VWS V14.01,2013-01-09 22:39:00,
2013-01-09 17:44:00,68.9,56.7,30.33,NW,306,0.0,1.0,65,0.00,,---,0.00,VWS V14.01,2013-01-09 22:44:00,
2013-01-09 17:49:00,68.8,56.6,30.33,NW,306,0.0,1.0,65,0.00,,---,0.00,VWS V14.01,2013-01-09 22:49:00,
2013-01-09 17:54:00,68.8,56.6,30.33,NW,306,0.0,1.0,65,0.00,,---,0.00,VWS V14.01,2013-01-09 22:54:00,
2013-01-09 17:59:00,68.8,56.6,30.33,NW,306,0.0,1.0,65,0.00,,---,0.00,VWS V14.01,2013-01-09 22:59:00,
2013-01-09 18:04:00,68.7,56.5,30.33,NW,306,0.0,1.0,65,0.00,,---,0.00,VWS V14.01,2013-01-09 23:04:00,
2013-01-09 18:09:00,68.7,56.5,30.33,NW,306,0.0,1.0,65,0.00,,---,0.00,VWS V14.01,2013-01-09 23:09:00,
2013-01-09 18:14:00,68.6,56.4,30.33,NW,306,0.0,1.0,65,0.00,,---,0.00,VWS V14.01,2013-01-09 23:14:00,
2013-01-09 18:19:00,68.6,56.4,30.33,NW,306,0.0,1.0,65,0.00,,---,0.00,VWS V14.01,2013-01-09 23:19:00,
2013-01-09 18:24:00,68.6,56.4,30.33,NW,306,0.0,1.0,65,0.00,,---,0.00,VWS V14.01,2013-01-09 23:24:00,
2013-01-09 18:29:00,68.5,56.3,30.33,NW,306,0.0,1.0,65,0.00,,---,0.00,VWS V14.01,2013-01-09 23:29:00,
2013-01-09 18:34:00,68.5,56.3,30.33,NW,306,0.0,1.0,65,0.00,,---,0.00,VWS V14.01,2013-01-09 23:34:00,
2013-01-09 18:39:00,68.5,56.3,30.33,NW,306,0.0,1.0,65,0.00,,---,0.00,VWS V14.01,2013-01-09 23:39:00,
2013-01-09 18:44:00,68.4,56.2,30.33,NW,306,0.0,1.0,65,0.00,,---,0.00,VWS V14.01,2013-01-09 23:44:00,
2013-01-09 18:49:00,68.4,56.2,30.33,NW,306,0.0,1.0,65,0.00,,---,0.00,VWS V14.01,2013-01-09 23:49:00,
2013-01-09 18:54:00,68.3,56.1,30.33,NW,306,0.0,1.0,65,0.00,,---,0.00,VWS V14.01,2013-01-09 23:54:00,
2013-01-09 18:59:00,68.3,56.1,30.33,NW,306,0.0,1.0,65,0.00,,---,0.00,VWS V14.01,2013-01-09 23:59:00,
2013-01-09 19:04:00,68.2,56.0,30.33,NW,306,0.0,1.0,65,0.00,,---,0.00,VWS V14.01,2013-01-10 00:04:00,
2013-01-09 19:09:00,68.2,56.0,30.33,NW,306,0.0,1.0,65,0.00,,---,0.00,VWS V14.01,2013-01-10 00:09:00,
2013-01-09 19:14:00,68.1,55.9,30.33,NW,306,0.0,1.0,65,0.00,,---,0.00,VWS V14.01,2013-01-10 00:14:00,
2013-01-09 19:19:00,68.1,55.9,30.34,NW,306,0.0,1.0,65,0.00,,---,0.00,VWS V14.01,2013-01-10 00:19:00,
2013-01-09 19:24:00,68.0,55.8,30.34,NW,306,0.0,1.0,65,0.00,,---,0.00,VWS V14.01,2013-01-10 00:24:00,
2013-01-09 19:29:00,68.0,55.8,30.33,NW,306,0.0,1.0,65,0.00,,---,0.00,VWS V14.01,2013-01-10 00:29:00,
2013-01-09 19:34:00,67.9,56.1,30.33,NW,306,0.0,1.0,66,0.00,,---,0.00,VWS V14.01,2013-01-10 00:34:00,
2013-01-09 19:39:00,67.9,56.1,30.33,NW,306,0.0,1.0,66,0.00,,---,0.00,VWS V14.01,2013-01-10 00:39:00,
2013-01-09 19:44:00,67.8,56.0,30.32,NW,306,0.0,1.0,66,0.00,,---,0.00,VWS V14.01,2013-01-10 00:44:00,
2013-01-09 19:49:00,67.8,56.0,30.32,NW,306,0.0,1.0,66,0.00,,---,0.00,VWS V14.01,2013-01-10 00:49:00,
2013-01-09 19:54:00,67.7,56.0,30.33,NW,306,0.0,1.0,66,0.00,,---,0.00,VWS V14.01,2013-01-10 00:54:00,
2013-01-09 19:58:00,67.7,56.0,30.33,NW,306,0.0,1.0,66,0.00,,---,0.00,VWS V14.01,2013-01-10 00:58:00,
2013-01-09 20:03:00,67.7,56.0,30.33,NW,306,0.0,1.0,66,0.00,,---,0.00,VWS V14.01,2013-01-10 01:03:00,
2013-01-09 20:08:00,67.7,56.0,30.33,NW,306,0.0,1.0,66,0.00,,---,0.00,VWS V14.01,2013-01-10 01:08:00,
2013-01-09 20:13:00,67.6,55.8,30.33,NW,306,0.0,1.0,66,0.00,,---,0.00,VWS V14.01,2013-01-10 01:13:00,
2013-01-09 20:18:00,67.6,55.8,30.33,NW,306,0.0,1.0,66,0.00,,---,0.00,VWS V14.01,2013-01-10 01:18:00,
2013-01-09 20:23:00,67.5,55.8,30.33,NW,306,0.0,1.0,66,0.00,,---,0.00,VWS V14.01,2013-01-10 01:23:00,
2013-01-09 20:28:00,67.5,55.8,30.32,NW,306,0.0,1.0,66,0.00,,---,0.00,VWS V14.01,2013-01-10 01:28:00,
2013-01-09 20:33:00,67.5,55.8,30.32,NW,306,0.0,1.0,66,0.00,,---,0.00,VWS V14.01,2013-01-10 01:33:00,
2013-01-09 20:38:00,67.4,55.7,30.32,NW,306,0.0,1.0,66,0.00,,---,0.00,VWS V14.01,2013-01-10 01:38:00,
2013-01-09 20:43:00,67.4,55.7,30.32,NW,306,0.0,1.0,66,0.00,,---,0.00,VWS V14.01,2013-01-10 01:43:00,
2013-01-09 20:48:00,67.4,55.7,30.32,NW,306,0.0,1.0,66,0.00,,---,0.00,VWS V14.01,2013-01-10 01:48:00,
2013-01-09 20:53:00,67.4,55.7,30.31,NW,306,0.0,1.0,66,0.00,,---,0.00,VWS V14.01,2013-01-10 01:53:00,
2013-01-09 20:58:00,67.4,55.7,30.31,NW,306,0.0,1.0,66,0.00,,---,0.00,VWS V14.01,2013-01-10 01:58:00,
2013-01-09 21:03:00,67.4,55.7,30.30,NW,306,0.0,1.0,66,0.00,,---,0.00,VWS V14.01,2013-01-10 02:03:00,
2013-01-09 21:08:00,67.3,55.6,30.30,NW,306,0.0,1.0,66,0.00,,---,0.00,VWS V14.01,2013-01-10 02:08:00,
2013-01-09 21:13:00,67.3,55.6,30.30,NW,306,0.0,1.0,66,0.00,,---,0.00,VWS V14.01,2013-01-10 02:13:00,
2013-01-09 21:18:00,67.3,55.6,30.30,NW,306,0.0,1.0,66,0.00,,---,0.00,VWS V14.01,2013-01-10 02:18:00,
2013-01-09 21:23:00,67.3,55.6,30.30,NW,306,0.0,1.0,66,0.00,,---,0.00,VWS V14.01,2013-01-10 02:23:00,
2013-01-09 21:28:00,67.3,55.6,30.31,NW,306,0.0,1.0,66,0.00,,---,0.00,VWS V14.01,2013-01-10 02:28:00,
2013-01-09 21:33:00,67.2,55.5,30.31,NW,306,0.0,1.0,66,0.00,,---,0.00,VWS V14.01,2013-01-10 02:33:00,
2013-01-09 21:38:00,67.2,55.5,30.31,NW,306,0.0,1.0,66,0.00,,---,0.00,VWS V14.01,2013-01-10 02:38:00,
2013-01-09 21:43:00,67.2,55.5,30.31,NW,306,0.0,1.0,66,0.00,,---,0.00,VWS V14.01,2013-01-10 02:43:00,
2013-01-09 21:51:00,67.2,55.5,30.32,NW,306,0.0,1.0,66,0.00,,---,0.00,VWS V14.01,2013-01-10 02:51:00,
2013-01-09 21:56:00,67.2,55.5,30.32,NW,306,0.0,1.0,66,0.00,,---,0.00,VWS V14.01,2013-01-10 02:56:00,
2013-01-09 22:01:00,67.2,55.5,30.32,NW,306,0.0,1.0,66,0.00,,---,0.00,VWS V14.01,2013-01-10 03:01:00,
2013-01-09 22:06:00,67.1,55.4,30.32,NW,306,0.0,1.0,66,0.00,,---,0.00,VWS V14.01,2013-01-10 03:06:00,
2013-01-09 22:11:00,67.1,55.4,30.33,NW,306,0.0,1.0,66,0.00,,---,0.00,VWS V14.01,2013-01-10 03:11:00,
2013-01-09 22:16:00,67.1,55.4,30.33,NW,306,0.0,1.0,66,0.00,,---,0.00,VWS V14.01,2013-01-10 03:16:00,
2013-01-09 22:21:00,67.0,55.3,30.33,NW,306,0.0,1.0,66,0.00,,---,0.00,VWS V14.01,2013-01-10 03:21:00,
2013-01-09 22:26:00,67.0,55.3,30.33,NW,306,0.0,1.0,66,0.00,,---,0.00,VWS V14.01,2013-01-10 03:26:00,
2013-01-09 22:31:00,66.9,55.2,30.33,NW,306,0.0,1.0,66,0.00,,---,0.00,VWS V14.01,2013-01-10 03:31:00,
2013-01-09 22:36:00,66.9,55.2,30.33,NW,306,0.0,1.0,66,0.00,,---,0.00,VWS V14.01,2013-01-10 03:36:00,
2013-01-09 22:41:00,66.8,55.1,30.34,NW,306,0.0,1.0,66,0.00,,---,0.00,VWS V14.01,2013-01-10 03:41:00,
2013-01-09 22:46:00,66.8,55.1,30.33,NW,306,0.0,1.0,66,0.00,,---,0.00,VWS V14.01,2013-01-10 03:46:00,
2013-01-09 22:51:00,66.7,55.0,30.33,NW,306,0.0,1.0,66,0.00,,---,0.00,VWS V14.01,2013-01-10 03:51:00,
2013-01-09 22:56:00,66.6,54.9,30.34,NW,306,0.0,1.0,66,0.00,,---,0.00,VWS V14.01,2013-01-10 03:56:00,
2013-01-09 23:01:00,66.6,54.9,30.33,NW,306,0.0,1.0,66,0.00,,---,0.00,VWS V14.01,2013-01-10 04:01:00,
2013-01-09 23:06:00,66.5,54.8,30.33,NW,306,0.0,1.0,66,0.00,,---,0.00,VWS V14.01,2013-01-10 04:06:00,
2013-01-09 23:11:00,66.5,54.8,30.33,NW,306,0.0,1.0,66,0.00,,---,0.00,VWS V14.01,2013-01-10 04:11:00,
2013-01-09 23:16:00,66.5,54.8,30.34,NW,306,0.0,1.0,66,0.00,,---,0.00,VWS V14.01,2013-01-10 04:16:00,
2013-01-09 23:21:00,66.4,54.7,30.34,NW,306,0.0,1.0,66,0.00,,---,0.00,VWS V14.01,2013-01-10 04:21:00,
2013-01-09 23:26:00,66.4,54.7,30.33,NW,306,0.0,1.0,66,0.00,,---,0.00,VWS V14.01,2013-01-10 04:26:00,
2013-01-09 23:31:00,66.4,54.7,30.33,NW,306,0.0,1.0,66,0.00,,---,0.00,VWS V14.01,2013-01-10 04:31:00,
2013-01-09 23:36:00,66.4,54.7,30.34,NW,306,0.0,1.0,66,0.00,,---,0.00,VWS V14.01,2013-01-10 04:36:00,
2013-01-09 23:41:00,66.4,54.7,30.34,NW,306,0.0,1.0,66,0.00,,---,0.00,VWS V14.01,2013-01-10 04:41:00,
2013-01-09 23:46:00,66.3,54.6,30.34,NW,306,0.0,1.0,66,0.00,,---,0.00,VWS V14.01,2013-01-10 04:46:00,
2013-01-09 23:51:00,66.3,54.6,30.34,NW,306,0.0,1.0,66,0.00,,---,0.00,VWS V14.01,2013-01-10 04:51:00,
2013-01-09 23:56:00,66.3,54.6,30.34,NW,306,0.0,1.0,66,0.00,,---,0.00,VWS V14.01,2013-01-10 04:56:00,